When you browse on this site, cookies collect data to enhance your experience and personalize the content and advertising you see.
Visit our Privacy Policy to learn more. By continuing to use the site, you agree to this use of cookies and data.
  • în România
  • Lista ţărilor
  • Pe 7 zile
  • Temperatura apei
  • Hartă satelitară
  • Meteo pe hartă
  • Widget-uri
  • user-avatar
    Intrare

    Meteo pe oră la Milikowice

    Astăzi, 22 Februarie, Vineri

    Timp Temperatura Precipitaţii Vânt Presiune Umiditate
    00:00 +5°C° 0.9 mm 5 m/s 743 mmHg 92%
    01:00 +4°C° 0 mm 3 m/s 743 mmHg 92%
    02:00 +5°C° 0.8 mm 4 m/s 743 mmHg 93%
    03:00 +5°C° 0.8 mm 4 m/s 743 mmHg 94%
    04:00 +5°C° 0.8 mm 5 m/s 743 mmHg 95%
    05:00 +3°C° 0.3 mm 5 m/s 744 mmHg 94%
    06:00 +2°C° 0.3 mm 6 m/s 745 mmHg 92%
    07:00 +1°C° 0 mm 5 m/s 747 mmHg 88%
    08:00 0°C° 0.1 mm 5 m/s 748 mmHg 85%
    09:00 -1°C° 0.1 mm 5 m/s 749 mmHg 82%
    10:00 -3°C° 0.1 mm 6 m/s 750 mmHg 79%
    11:00 -3°C° 0 mm 6 m/s 751 mmHg 71%
    12:00 -2°C° 0 mm 6 m/s 752 mmHg 63%
    13:00 -1°C° 0 mm 5 m/s 753 mmHg 53%
    14:00 -1°C° 0 mm 5 m/s 753 mmHg 52%
    15:00 -2°C° 0 mm 5 m/s 754 mmHg 51%
    16:00 -2°C° 0 mm 5 m/s 754 mmHg 49%
    17:00 -3°C° 0 mm 4 m/s 755 mmHg 52%
    18:00 -4°C° 0 mm 4 m/s 756 mmHg 56%
    19:00 -5°C° 0 mm 3 m/s 757 mmHg 59%
    20:00 -5°C° 0 mm 3 m/s 757 mmHg 58%
    21:00 -5°C° 0 mm 3 m/s 758 mmHg 58%
    22:00 -4°C° 0 mm 2 m/s 758 mmHg 57%
    23:00 -4°C° 0 mm 2 m/s 758 mmHg 55%

    Mâine, 23 Februarie, Sâmbătă

    Timp Temperatura Precipitaţii Vânt Presiune Umiditate
    00:00 -4°C° 0 mm 2 m/s 759 mmHg 53%
    01:00 -5°C° 0 mm 2 m/s 759 mmHg 52%
    02:00 -3°C° 0 mm 1 m/s 759 mmHg 51%
    03:00 -3°C° 0 mm 1 m/s 759 mmHg 51%
    04:00 -3°C° 0 mm 1 m/s 759 mmHg 50%
    05:00 -3°C° 0 mm 1 m/s 759 mmHg 50%
    06:00 -3°C° 0 mm 1 m/s 759 mmHg 50%
    07:00 -3°C° 0 mm 1 m/s 759 mmHg 49%
    08:00 -2°C° 0 mm 1 m/s 759 mmHg 44%
    09:00 -1°C° 0 mm 1 m/s 759 mmHg 39%
    10:00 -3°C° 0 mm 2 m/s 759 mmHg 33%
    11:00 -2°C° 0 mm 2 m/s 759 mmHg 31%
    12:00 -1°C° 0 mm 2 m/s 759 mmHg 29%
    13:00 +1°C° 0 mm 2 m/s 759 mmHg 26%
    14:00 +1°C° 0 mm 2 m/s 758 mmHg 28%
    15:00 +1°C° 0 mm 2 m/s 758 mmHg 29%
    16:00 +1°C° 0 mm 2 m/s 758 mmHg 30%
    17:00 -1°C° 0 mm 2 m/s 758 mmHg 34%
    18:00 0°C° 0 mm 1 m/s 758 mmHg 38%
    19:00 -1°C° 0 mm 1 m/s 758 mmHg 42%
    20:00 -1°C° 0 mm 1 m/s 757 mmHg 41%
    21:00 -1°C° 0 mm 1 m/s 757 mmHg 41%
    22:00 -1°C° 0 mm 1 m/s 757 mmHg 40%
    23:00 -1°C° 0 mm 1 m/s 757 mmHg 38%

    Poimâine, 24 Februarie, Duminică

    Timp Temperatura Precipitaţii Vânt Presiune Umiditate
    00:00 -1°C° 0 mm 1 m/s 757 mmHg 37%
    01:00 0°C° 0 mm 1 m/s 757 mmHg 35%
    02:00 0°C° 0 mm 1 m/s 757 mmHg 34%
    03:00 0°C° 0 mm 1 m/s 756 mmHg 33%
    04:00 0°C° 0 mm 1 m/s 756 mmHg 32%
    05:00 0°C° 0 mm 1 m/s 756 mmHg 31%
    06:00 0°C° 0 mm 1 m/s 756 mmHg 31%
    07:00 +1°C° 0 mm 1 m/s 756 mmHg 30%
    08:00 +2°C° 0 mm 1 m/s 756 mmHg 29%
    09:00 +3°C° 0 mm 1 m/s 756 mmHg 27%
    10:00 +5°C° 0 mm 1 m/s 756 mmHg 26%
    11:00 +6°C° 0 mm 1 m/s 756 mmHg 26%
    12:00 +6°C° 0 mm 2 m/s 756 mmHg 27%
    13:00 +8°C° 0 mm 2 m/s 756 mmHg 28%
    14:00 +7°C° 0 mm 2 m/s 755 mmHg 34%
    15:00 +7°C° 0 mm 2 m/s 755 mmHg 40%
    16:00 +6°C° 0 mm 2 m/s 755 mmHg 46%
    17:00 +5°C° 0 mm 2 m/s 755 mmHg 49%
    18:00 +4°C° 0 mm 2 m/s 755 mmHg 52%
    19:00 +2°C° 0 mm 2 m/s 755 mmHg 55%
    20:00 +2°C° 0 mm 2 m/s 755 mmHg 55%
    21:00 +2°C° 0 mm 2 m/s 755 mmHg 56%
    22:00 +2°C° 0 mm 2 m/s 756 mmHg 56%
    23:00 +2°C° 0 mm 2 m/s 756 mmHg 57%

    25 Februarie, Luni

    Timp Temperatura Precipitaţii Vânt Presiune Umiditate
    00:00 +2°C° 0 mm 2 m/s 756 mmHg 58%
    01:00 +2°C° 0 mm 2 m/s 756 mmHg 59%
    02:00 +2°C° 0 mm 2 m/s 756 mmHg 60%
    03:00 +2°C° 0 mm 2 m/s 755 mmHg 61%
    04:00 +2°C° 0 mm 2 m/s 755 mmHg 62%
    05:00 +1°C° 0 mm 2 m/s 755 mmHg 63%
    06:00 +1°C° 0 mm 2 m/s 755 mmHg 64%
    07:00 +1°C° 0 mm 2 m/s 755 mmHg 65%
    08:00 +3°C° 0 mm 2 m/s 755 mmHg 61%
    09:00 +3°C° 0 mm 3 m/s 756 mmHg 58%
    10:00 +5°C° 0 mm 3 m/s 756 mmHg 54%
    11:00 +7°C° 0 mm 3 m/s 756 mmHg 56%
    12:00 +8°C° 0 mm 3 m/s 756 mmHg 58%
    13:00 +8°C° 0 mm 3 m/s 756 mmHg 61%
    14:00 +8°C° 0 mm 3 m/s 755 mmHg 63%
    15:00 +8°C° 0 mm 2 m/s 755 mmHg 66%
    16:00 +8°C° 0 mm 2 m/s 754 mmHg 69%
    17:00 +7°C° 0 mm 2 m/s 754 mmHg 73%
    18:00 +5°C° 0 mm 2 m/s 754 mmHg 78%
    19:00 +4°C° 0 mm 2 m/s 754 mmHg 82%
    20:00 +4°C° 0 mm 2 m/s 754 mmHg 81%
    21:00 +3°C° 0 mm 2 m/s 754 mmHg 81%
    22:00 +3°C° 0 mm 2 m/s 754 mmHg 80%
    23:00 +3°C° 0 mm 2 m/s 754 mmHg 79%

    26 Februarie, Marţi

    Timp Temperatura Precipitaţii Vânt Presiune Umiditate
    00:00 +3°C° 0 mm 2 m/s 754 mmHg 77%
    01:00 +3°C° 0 mm 2 m/s 754 mmHg 76%
    02:00 +3°C° 0 mm 2 m/s 753 mmHg 75%
    03:00 +3°C° 0 mm 2 m/s 753 mmHg 74%
    04:00 +3°C° 0 mm 2 m/s 753 mmHg 73%
    05:00 +2°C° 0 mm 3 m/s 753 mmHg 70%
    06:00 +2°C° 0 mm 3 m/s 752 mmHg 68%
    07:00 +2°C° 0 mm 3 m/s 752 mmHg 65%
    08:00 +4°C° 0 mm 4 m/s 752 mmHg 60%
    09:00 +5°C° 0 mm 4 m/s 752 mmHg 54%
    10:00 +7°C° 0 mm 5 m/s 752 mmHg 49%
    11:00 +8°C° 0 mm 5 m/s 752 mmHg 47%
    12:00 +10°C° 0 mm 5 m/s 752 mmHg 45%
    13:00 +11°C° 0 mm 6 m/s 751 mmHg 43%
    14:00 +10°C° 0 mm 6 m/s 751 mmHg 45%
    15:00 +10°C° 0 mm 6 m/s 751 mmHg 47%
    16:00 +10°C° 0 mm 5 m/s 750 mmHg 49%
    17:00 +8°C° 0 mm 5 m/s 751 mmHg 55%
    18:00 +7°C° 0 mm 4 m/s 751 mmHg 62%
    19:00 +6°C° 0 mm 4 m/s 751 mmHg 68%
    20:00 +5°C° 0 mm 4 m/s 751 mmHg 71%
    21:00 +5°C° 0 mm 3 m/s 751 mmHg 75%
    22:00 +4°C° 0 mm 3 m/s 751 mmHg 78%
    23:00 +4°C° 0 mm 3 m/s 751 mmHg 78%

    27 Februarie, Miercuri

    Timp Temperatura Precipitaţii Vânt Presiune Umiditate
    00:00 +4°C° 0 mm 2 m/s 751 mmHg 79%
    01:00 +4°C° 0 mm 2 m/s 751 mmHg 80%
    02:00 +4°C° 0 mm 2 m/s 750 mmHg 79%
    03:00 +4°C° 0 mm 2 m/s 750 mmHg 79%
    04:00 +3°C° 0 mm 2 m/s 750 mmHg 79%
    05:00 +3°C° 0 mm 2 m/s 750 mmHg 78%
    06:00 +3°C° 0 mm 2 m/s 750 mmHg 78%
    07:00 +3°C° 0 mm 2 m/s 749 mmHg 78%
    08:00 +5°C° 0 mm 2 m/s 749 mmHg 71%
    09:00 +7°C° 0 mm 2 m/s 749 mmHg 64%
    10:00 +9°C° 0 mm 2 m/s 749 mmHg 57%
    11:00 +10°C° 0 mm 2 m/s 749 mmHg 53%
    12:00 +12°C° 0 mm 3 m/s 748 mmHg 49%
    13:00 +13°C° 0 mm 3 m/s 748 mmHg 44%
    14:00 +13°C° 0 mm 3 m/s 747 mmHg 47%
    15:00 +13°C° 0 mm 3 m/s 746 mmHg 49%
    16:00 +14°C° 0 mm 2 m/s 745 mmHg 51%
    17:00 +11°C° 0 mm 3 m/s 745 mmHg 57%
    18:00 +10°C° 0 mm 3 m/s 745 mmHg 63%
    19:00 +8°C° 0 mm 3 m/s 744 mmHg 68%
    20:00 +8°C° 0 mm 3 m/s 744 mmHg 67%
    21:00 +8°C° 0 mm 3 m/s 743 mmHg 66%
    22:00 +7°C° 0 mm 3 m/s 743 mmHg 64%
    23:00 +7°C° 0 mm 3 m/s 742 mmHg 65%
    Arată mai mult